This demonstration page uses our WeatherBlox Daily Observations layout. Learn more.

Left ArrowRight Arrow

44.31136, -96.79839

Hourly Observations for August 2, 2022

Temp ( °F °C ) Dew Point ( °F °C ) Humidity (%) Winds ( mph kmh ) Pressure ( in mb ) Visibility ( mi km ) Precip ( " mm )
12:56 am 00:56 Clear 70 21.1 65 18.3 84 84 SE 12 19 29.85 1011 10 16 0.00 0.00
1:56 am 01:56 Clear 70 21.1 65 18.3 84 84 SE 12 19 29.84 1011 10 16 0.00 0.00
2:56 am 02:56 Clear 69 20.6 66 18.9 90 90 ESE 9 15 29.82 1010 10 16 0.00 0.00
3:56 am 03:56 Clear 68 20 66 18.9 93 93 SE 14 22 29.79 1009 10 16 0.00 0.00
4:56 am 04:56 Clear 69 20.6 66 18.9 90 90 SE 14 22 29.77 1008 10 16 0.00 0.00
5:56 am 05:56 Clear 69 20.6 67 19.4 93 93 SSE 15 24 29.75 1008 10 16 0.00 0.00
6:56 am 06:56 Sunny 70 21.1 68 20 93 93 SSE 15 24 29.73 1007 10 16 0.00 0.00
7:56 am 07:56 Sunny 73 22.8 69 20.6 87 87 S 18 30 29.73 1007 10 16 0.00 0.00
8:56 am 08:56 Sunny 79 26.1 70 21.1 74 74 S 15 24 29.71 1006 10 16 0.00 0.00
9:56 am 09:56 Sunny 83 28.3 71 21.7 67 67 SSW 16 26 29.69 1006 10 16 0.00 0.00
10:56 am 10:56 Sunny 87 30.6 70 21.1 57 57 SSW 16 26 29.68 1005 10 16 0.00 0.00
11:56 am 11:56 Sunny 90 32.2 71 21.7 54 54 SSW 13 20 29.67 1005 10 16 0.00 0.00
12:56 pm 12:56 Sunny 92 33.3 71 21.7 51 51 SSW 13 20 29.67 1005 10 16 0.00 0.00
1:56 pm 13:56 Sunny 95 35 70 21.1 44 44 SW 10 17 29.66 1004 10 16 0.00 0.00
2:56 pm 14:56 Sunny 98 36.7 70 21.1 40 40 WSW 12 19 29.64 1004 10 16 0.00 0.00
3:56 pm 15:56 Sunny 100 37.8 66 18.9 33 33 SW 8 13 29.64 1004 10 16 0.00 0.00
4:56 pm 16:56 Sunny 101 38.3 59 15 25 25 SSW 9 15 29.63 1003 10 16 0.00 0.00
5:56 pm 17:56 Sunny 101 38.3 57 13.9 23 23 S 6 9 29.62 1003 10 16 0.00 0.00
6:56 pm 18:56 Sunny 100 37.8 61 16.1 28 28 Calm 29.60 1003 10 16 0.00 0.00
7:56 pm 19:56 Sunny 90 32.2 68 20 48 48 ENE 5 7 29.60 1002 10 16 0.00 0.00
8:56 pm 20:56 Clear 89 31.7 70 21.1 53 53 SE 9 15 29.59 1002 10 16 0.00 0.00
9:11 pm 21:11 Partly Cloudy with Nearby Thunderstorms 84 29 68 20 58 58 W 33 54 29.57 1001 9 14 0.00 0.00
9:27 pm 21:27 Windy with Storms Likely 73 23 68 20 83 83 W 37 59 29.61 1003 10 16 0.00 0.00
9:56 pm 21:56 Cloudy with Thunderstorms 69 20.6 69 20.6 100 100 NW 18 30 29.72 1007 6 10 0.06 1.52
10:39 pm 22:39 Cloudy with Light Rain 70 21 70 21 100 100 NNE 8 13 29.66 1005 10 16 0.04 1.02
10:56 pm 22:56 Cloudy with Light Rain 70 21.1 70 21.1 100 100 NE 9 15 29.70 1006 10 16 0.05 1.27
11:56 pm 23:56 Mostly Cloudy 72 22.2 64 17.8 76 76 NE 8 13 29.66 1004 10 16 0.00 0.00

Powered by AerisWeather